User: anonymous
Location: Goheenville
(40.9070°N, 79.3720°W)
Time: 00:14:36
(UTC-04:00)
Language:

Meteor 2-10 Rocket - Orbit

View from above orbital plane
View from above orbital plane
View from above satellite
View from above satellite

Ground track
Ground track

The orbit data is extracted from the following two-line orbital elements,

1 14453U 83109B   14242.49682587  .00000116  00000-0  41559-4 0  2225
2 14453 081.1655 054.0232 0105927 138.8460 274.4349 14.24508488602066
Epoch (UTC): 30 August 2014 11:55:25
Eccentricity: 0.0105927
inclination: 81.1655°
perigee height: 734 km
apogee height: 886 km
right ascension of ascending node: 54.0232°
argument of perigee: 138.8460°
revolutions per day: 14.24508488
mean anomaly at epoch: 274.4349°
orbit number at epoch: 60206

The dashed part of the orbit path shows where the satellite is in the earth's shadow,  

DLR